Погода в Чите

Погода в Чите : погода сейчас, прогноз погоды и архив. Всё, что Вы хотите узнать о погоде в Чите!

Поиск расширенной информации на нашем сайте:

Другие новости

Новости СМИ2

Главная страница сайта

Новости сайта

02.10.2013

Напоминаем, что на нашем новом сайте вы можете получить высокодетализированные прогнозы погоды по пунктам России, СНГ и мира (включающие важные для авиации метеовеличины, такие как направление и скорость ветра, видимость, явления погоды, количество и форма облачности, нижняя и верхняя граница облачности), а также ознакомиться с разнообразными материалами по авиационной метеорологии и подборкой полезных ссылок на эту тему.

Сайт Метеоцентр.Азия посвящён разработке технологий оптимизации авиаметеорологического обслуживания, включая проектирование и перспективное создание нескольких автоматизированных авиаметеорологических систем:
- система выпуска высокодетальных прогностических карт явлений погоды для нижнего воздушного пространства по России и ближнему зарубежью;
- система верификации прогнозов TAF (выпускаемых синоптиками официальных АМСГ РФ и ближнего зарубежья) и AUTOTAF (выпускаемых сайтом Метеоцентр.Азия) - выявление ошибок, онлайн-сопоставление с фактической погодой METAR, автоматическое внесение коррективов в прогнозы при резком отклонении фактической погоды от прогноза, подсчёт оправдываемости прогнозов по элементам и в целом;
- система обработки, анализа и отображения авиаметеорологической информации для применения провайдерами метеорологической информации.


Погода в Чите - сегодня

Время (UTC), дата Ветер
(°,м/с) 
Видим.   Явления Облачность Т
(°С)
Тd
(°С)
f(%) Тe
(°С)
Pmin
(гПа)
dP
(гПа)
Po
(мм)
O2
(г/м3)
Тmin Tmax R s Состояние
почвы
21 25.04.17 тихо ()   50000 м    3/0 верхняя 
[Ci fib]
-4.3 -8.3 74 -4  1028.3  0.2  709  291           
00 26.04.17 тихо ()   20000 м    10/0 верхняя 
[Ci fib]
+2.3 -6.1 54 +2  1027  0.7  709  284  -4.4         
03 26.04.17 250 (З) 20000 м    10/0 средняя 
[As trans]
+13.1 -9.4 20 +14  1021.7  -2  708  273           
06 26.04.17 320 (СЗ) 5-11{11}  20000 м    6/0 верхняя 
[Ci fib]
+18.3 -11.7 12 +18  1017.2  -2.9  706  267           
09 26.04.17 300 (СЗ) 8-14{15}  20000 м    6/0 средняя, верхняя 
[Ac lent|Ci fib]
+19.3 -14.2 9 +19  1013.4  -3.2  703  266           
12 26.04.17 310 (СЗ) 6{14}  20000 м    10/0 средняя, верхняя 
[Ac lent|Ci fib]
+13.4 -12.7 15 +12  1016.4  1.3  704  271    +19.8       
15 26.04.17 тихо () {10}  50000 м    ясно 
+8 -9.7 27 +8  1018.1  0.1  704  276           
18 26.04.17 100 (В) 50000 м    10/0 средняя, верхняя 
[Ac lent|Ci fib]
+6.8 -8 34 +8  1017.1  -1.2  703  277           
21 26.04.17 070 (В) н/о    н/о 
+6.8 -7.8 34 +8  1016.2  -0.8  703  277           
00 27.04.17 080 (В) 20000 м    10/0 средняя 
[Ac As]
+10.4 -6.8 29 +12  1015.3  0.2  703  273  +5.9         
06 27.04.17 310 (СЗ) 6-10{13}  20000 м    9/1 1000 м средняя, верхняя 
[Cu hum|Ac lent|Ci sp]
+18.2 -7.2 17 +18  1009  -2.5  700  265           
09 27.04.17 310 (СЗ) 7-12{13}  20000 м    6/4 1000 м верхняя 
[Cu hum|Ci fib]
+18.8 -5.6 19 +19  1006.3  -2.3  698  264           
12 27.04.17 310 (СЗ) 6-10{13}  20000 м    8/1 1000 м средняя, верхняя 
[Cu hum|Ac trans|Ci fib]
+14.1 -3.2 30 +13  1008.3  0.8  699  268    +19.6       
15 27.04.17 330 (СЗ) 5-10{10}  50000 м    4/0 верхняя 
[Ci fib]
+11.3 -1.8 40 +10  1009.9  0.7  699  271           
18 27.04.17 060 (СВ) 1{10}  50000 м    6/0 верхняя 
[Ci fib]
+6.8 -1.2 57 +8  1010.9  0.7  699  275           
21 27.04.17 тихо ()   20000 м    6/0 верхняя 
[Ci fib]
+4.8 -0.9 67 +5  1010.8  -0.6  699  277           
00 28.04.17 190 (Ю) 20000 м  дым  10/4 1000 м средняя 
[Sc|Ac As]
+11.1 -0.3 45 +11  1008.8  -0.2  699  270  +4.5         
03 28.04.17 200 (Ю) 20000 м  дым  10/0 средняя, верхняя 
[Ac lent|Ci fib]
+16.6 -2 28 +17  1004.4  -2.7  697  265           
06 28.04.17 260 (З) 5-10{11}  20000 м  дым  10/0 верхняя 
[Cs]
+21.8 -5.8 15 +22  998.1  -4.5  693  259           
09 28.04.17 310 (СЗ) 10-17{17}  50000 м    10/0 верхняя 
[Cs]
+24.6 -12.1 8 +25  993.4  -3.7  690  256           
12 28.04.17 290 (З) 4{17}  20000 м  дым  10/0 средняя, верхняя 
[Ac trans|Ci fib]
+20.1 -7.7 15 +20  994.5  -0.1  690  260    +25.1       
15 28.04.17 300 (СЗ) 7-13{17}  50000 м    10/0 средняя, верхняя 
[Ac trans|Ci fib]
+16.7 -0.4 31 +16  996.6  1.2  691  262           
18 28.04.17 310 (СЗ) 7-12{14}  50000 м    1/0 верхняя 
[Ci fib]
+13.6 -3.1 31 +12  997.7  0.2  691  266           
21 28.04.17 310 (СЗ) 6-11{13}  20000 м    ясно 
+10.6 -9.1 24 +9  1001.1  2.3  693  270           
00 29.04.17 350 (С) 7-14{17}  20000 м    1/0 верхняя 
[Ci fib]
+10.9 -14.7 15 +9  1005.5  4.1  696  271  +10         
Время (UTC), дата Ветер
(°,м/с) 
Видим.   Явления Облачность Т
(°С)
Тd
(°С)
f(%) Тe
(°С)
Pmin
(гПа)
dP
(гПа)
Po
(мм)
O2
(г/м3)
Тmin Tmax R s Состояние
почвы

Для получения пояснительной информации подведите курсор к названию столбца.

ПОГОДА в Чите - архив

Всё, что Вы хотите узнать о погоде в Чите - удобно и подробно!

Выберите нужную дату (начиная с 1 января 2015* года) и нажмите кнопку "Найти".
Будут отображены архивные сводки погоды по пункту Чита, начиная с указанной даты.


Отображать данные в формате CSV (для использования в таблицах Excel)


Внимание! Наш архив погоды предназначен исключительно для личного некоммерческого использования в познавательных целях. Если Вам необходимы официальные справки о состоянии погоды (для производственных, юридических, коммерческих и т.п. целей), обращайтесь в органы Росгидромета.

*Примечание: данная дата относится к архиву по метеостанциям СССР (Россия, СНГ, Балтия).
Архив по метеостанциям Зарубежной Европы и Азии (кроме Китая) хранится 10 дней, по другим регионам земного шара (Китай, Африка, Америка, Австралия, Океания) - 1 день.

Чита - район местоположения метеостанции


Название, широта, долгота, высота метеостанции:
Чита (город) 52.1°ш. 113.3°д. 680 м над ур. моря [Российская Федерация]

Дополнительная информация

В oтличие oт бoльшинства пoгoдных сайтoв мы публикуем пoдрoбную метеoинфoрмацию в детальнoм прoфессиoнальнoм фoрмате.

Характеристики температуры и влажнoсти вoздуха измеряются на высoте 2 м в тени вдали oт зданий и деревьев.
Скoрoсть ветра измеряется на высoте 10 м (на урoвне рoста челoвека скoрoсть ветра ниже в 1.5-2 раза). Если метеoстанция нахoдится в гoрoде или в лесу, тo скoрoсть ветра занижена на 2-4 м/с пo сравнению с oткрытым местoм. Скoрoсть ветра над акватoриями крупных рек и oзёр, а также на вершинах хoлмoв на 2-5 м/с выше, чем в oбычных услoвиях.
Атмoсфернoе давление в разных тoчках местнoсти мoжет значительнo oтличаться oт давления на метеoстанции, в зависимoсти oт услoвий рельефа (при пoдъёме на 10 м давление пoнижается примернo на 1 мм рт.ст.).